Sterling, IL

8:57 AM CDT on October 19, 2017 (GMT -0500)
Whiteside County-Bittorf

Weather History for KSQI - October, 2013

Change the Weather History Date:

Sunday, October 6, 2013

  Actual Average Record
Temperature  
Mean Temperature 50 °F -  
Max Temperature 55 °F 65 °F 89 °F (2007)
Min Temperature 42 °F 42 °F 28 °F (2012)
Degree Days  
Heating Degree Days 16    
Moisture  
Dew Point 40 °F    
Average Humidity 73    
Maximum Humidity 87    
Minimum Humidity 54    
Precipitation  
Precipitation 0.00 in - - ()
Sea Level Pressure  
Sea Level Pressure 29.78 in    
Wind  
Wind Speed 8 mph (WSW)    
Max Wind Speed 16 mph    
Max Gust Speed 22 mph    
Visibility 10 miles    
Events      
Averages and records for this station are not official NWS values.
T = Trace of Precipitation, MM = Missing Value Source: NWS Daily Summary

Daily Weather History Graph

Daily Weather History Graph

Search for Another Location

Airport or City:

Trip Planner

Search our weather history database for the weather conditions in past years. The results will help you decide how hot, cold, wet, or windy it might be!

Date:

Astronomy

Oct. 06, 2013 Rise Set
Actual Time 7:01 AM CDT 6:31 PM CDT
Civil Twilight 6:33 AM CDT 6:59 PM CDT
Nautical Twilight 6:01 AM CDT 7:31 PM CDT
Astronomical Twilight 5:28 AM CDT 8:03 PM CDT
Moon 8:47 AM CDT (10/6) 7:28 PM CDT (10/6)
Length of Visible Light 12h 25m
Length of Day
11h 30m
Waxing Crescent, 3% of the Moon is Illuminated
Oct 6
Waxing Crescent
Oct 11
First Quarter
Oct 18
Full
Oct 26
Last Quarter
Nov 3
New

Hourly Weather History & Observations

Time (CDT) Temp. Windchill Dew Point Humidity Pressure Visibility Wind Dir Wind Speed Gust Speed Precip Events Conditions
12:15 AM - - - N/A% 29.82 in 10.0 mi WSW 8.1 mph - N/A   Mostly Cloudy
12:35 AM - - - N/A% 29.82 in 10.0 mi West 16.1 mph 21.9 mph N/A   Overcast
12:55 AM 55.4 °F - 39.2 °F 54% 29.83 in 10.0 mi West 12.7 mph - N/A   Overcast
1:15 AM 55.4 °F - 39.2 °F 54% 29.82 in 10.0 mi West 11.5 mph - N/A   Overcast
1:35 AM - - - N/A% 29.80 in 10.0 mi WNW 12.7 mph - N/A   Overcast
1:55 AM - - - N/A% 29.80 in 10.0 mi West 8.1 mph - N/A   Overcast
2:15 AM - - - N/A% 29.80 in 10.0 mi West 8.1 mph - N/A   Overcast
2:35 AM 48.2 °F - 39.2 °F 71% 29.81 in 10.0 mi West 8.1 mph - N/A   Partly Cloudy
2:55 AM - - - N/A% 29.79 in 10.0 mi Calm Calm - N/A   Clear
3:15 AM - - - N/A% 29.79 in 10.0 mi Calm Calm - N/A   Clear
3:35 AM - - - N/A% 29.79 in 10.0 mi Calm Calm - N/A   Clear
3:55 AM - - - N/A% 29.79 in 10.0 mi SSW 4.6 mph - N/A   Clear
4:15 AM - - - N/A% 29.79 in 10.0 mi Calm Calm - N/A   Clear
4:35 AM - - - N/A% 29.79 in 10.0 mi Calm Calm - N/A   Clear
4:55 AM - - - N/A% 29.79 in 10.0 mi Calm Calm - N/A   Clear
5:15 AM - - - N/A% 29.79 in 10.0 mi Calm Calm - N/A   Clear
5:35 AM - - - N/A% 29.79 in 10.0 mi Calm Calm - N/A   Clear
5:55 AM - - - N/A% 29.78 in 5.0 mi Calm Calm - N/A   Clear
6:15 AM - - - N/A% 29.78 in 10.0 mi Calm Calm - N/A   Clear
6:35 AM - - - N/A% 29.78 in 10.0 mi Calm Calm - N/A   Clear
6:55 AM - - - N/A% 29.77 in 10.0 mi Calm Calm - N/A   Clear
7:15 AM - - - N/A% 29.77 in 10.0 mi WSW 3.5 mph - N/A   Clear
7:35 AM - - - N/A% 29.77 in 10.0 mi WSW 4.6 mph - N/A   Clear
7:55 AM - - - N/A% 29.77 in 10.0 mi SW 3.5 mph - N/A   Clear
8:15 AM - - - N/A% 29.78 in 10.0 mi WSW 8.1 mph - N/A   Clear
8:35 AM - - - N/A% 29.78 in 10.0 mi WSW 9.2 mph - N/A   Clear
8:55 AM - - - N/A% 29.77 in 10.0 mi WSW 10.4 mph - N/A   Clear
9:15 AM - - - N/A% 29.76 in 10.0 mi WSW 8.1 mph - N/A   Clear
9:35 AM - - - N/A% 29.76 in 10.0 mi WSW 10.4 mph - N/A   Clear
9:55 AM - - - N/A% 29.76 in 10.0 mi West 9.2 mph - N/A   Clear
10:15 AM - - - N/A% 29.76 in 10.0 mi West 13.8 mph 18.4 mph N/A   Clear
10:35 AM - - - N/A% 29.76 in 10.0 mi WSW 12.7 mph 19.6 mph N/A   Clear
10:55 AM - - - N/A% 29.76 in 10.0 mi West 13.8 mph 20.7 mph N/A   Clear
11:15 AM - - - N/A% 29.76 in 10.0 mi West 13.8 mph 18.4 mph N/A   Scattered Clouds
11:35 AM - - - N/A% 29.76 in 10.0 mi WSW 12.7 mph - N/A   Partly Cloudy
11:55 AM - - - N/A% 29.76 in 10.0 mi WSW 11.5 mph 17.3 mph N/A   Scattered Clouds
12:15 PM - - - N/A% 29.75 in 10.0 mi West 8.1 mph 17.3 mph N/A   Scattered Clouds
12:35 PM - - - N/A% 29.75 in 10.0 mi WSW 11.5 mph 18.4 mph N/A   Mostly Cloudy
12:55 PM - - - N/A% 29.75 in 10.0 mi WSW 12.7 mph 16.1 mph N/A   Overcast
1:15 PM - - - N/A% 29.75 in 10.0 mi West 12.7 mph - N/A   Overcast
1:35 PM - - - N/A% 29.74 in 10.0 mi WSW 9.2 mph 17.3 mph N/A   Overcast
1:55 PM - - - N/A% 29.74 in 10.0 mi WSW 13.8 mph 19.6 mph N/A   Overcast
2:15 PM - - - N/A% 29.74 in 10.0 mi West 11.5 mph 16.1 mph N/A   Overcast
2:35 PM - - - N/A% 29.74 in 10.0 mi WSW 9.2 mph - N/A   Overcast
2:55 PM - - - N/A% 29.74 in 10.0 mi WSW 6.9 mph - N/A   Overcast
3:15 PM - - - N/A% 29.74 in 10.0 mi West 12.7 mph - N/A   Overcast
3:35 PM - - - N/A% 29.73 in 10.0 mi West 9.2 mph - N/A   Overcast
3:55 PM - - - N/A% 29.74 in 10.0 mi West 10.4 mph - N/A   Overcast
4:15 PM - - - N/A% 29.75 in 10.0 mi WSW 10.4 mph - N/A   Overcast
4:35 PM - - - N/A% 29.75 in 10.0 mi WSW 10.4 mph - N/A   Overcast
4:55 PM - - - N/A% 29.76 in 10.0 mi WSW 10.4 mph - N/A   Overcast
5:15 PM - - - N/A% 29.76 in 10.0 mi WSW 13.8 mph 18.4 mph N/A   Overcast
5:35 PM - - - N/A% 29.77 in 10.0 mi WSW 11.5 mph - N/A   Mostly Cloudy
5:55 PM - - - N/A% 29.78 in 10.0 mi West 10.4 mph - N/A   Overcast
6:15 PM - - - N/A% 29.78 in 10.0 mi West 10.4 mph - N/A   Mostly Cloudy
6:35 PM - - - N/A% 29.78 in 10.0 mi West 8.1 mph - N/A   Partly Cloudy
6:55 PM - - - N/A% 29.79 in 10.0 mi West 6.9 mph - N/A   Partly Cloudy
7:15 PM - - - N/A% 29.78 in 10.0 mi West 9.2 mph - N/A   Scattered Clouds
7:35 PM - - - N/A% 29.78 in 10.0 mi West 6.9 mph - N/A   Partly Cloudy
7:55 PM - - - N/A% 29.79 in 10.0 mi WSW 5.8 mph - N/A   Partly Cloudy
8:15 PM - - - N/A% 29.79 in 10.0 mi WSW 5.8 mph - N/A   Partly Cloudy
8:35 PM - - - N/A% 29.79 in 10.0 mi WSW 4.6 mph - N/A   Scattered Clouds
8:55 PM - - - N/A% 29.79 in 10.0 mi WSW 3.5 mph - N/A   Scattered Clouds
9:15 PM - - - N/A% 29.79 in 10.0 mi WSW 4.6 mph - N/A   Mostly Cloudy
9:35 PM - - - N/A% 29.80 in 10.0 mi West 5.8 mph - N/A   Mostly Cloudy
9:55 PM - - - N/A% 29.80 in 10.0 mi West 10.4 mph - N/A   Mostly Cloudy
10:15 PM - - - N/A% 29.79 in 10.0 mi WSW 6.9 mph - N/A   Overcast
10:35 PM 44.6 °F 40.7 °F 41.0 °F 87% 29.80 in 10.0 mi West 6.9 mph - N/A   Scattered Clouds
10:55 PM 44.6 °F 40.2 °F 41.0 °F 87% 29.80 in 10.0 mi West 8.1 mph - N/A   Scattered Clouds
11:15 PM - - - N/A% 29.80 in 10.0 mi West 9.2 mph - N/A   Partly Cloudy
11:35 PM - - - N/A% 29.80 in 10.0 mi WSW 5.8 mph - N/A   Mostly Cloudy
11:55 PM 42.8 °F 37.5 °F 39.2 °F 87% 29.81 in 10.0 mi West 9.2 mph - N/A   Scattered Clouds